Regional Weather Roundup
Issued by NWS Newport/Morehead, NC

Current Version | Previous Version | Graphics & Text | Print | Product List | Glossary Off
Versions: 1 2 3 4 5 6 7 8 9 10 11 12 13 14 15 16 17 18 19 20 21 22 23 24 25 26 27 28 29 30 31 32 33 34 35 36 37 38 39 40 41 42 43 44 45 46 47 48 49 50

000
ASUS42 KMHX 271525
RWRMHX
WEATHER ROUNDUP FOR EASTERN NORTH CAROLINA
NATIONAL WEATHER SERVICE NEWPORT/MOREHEAD CITY NC
1100 AM EDT TUE JUN 27 2017

NOTE: "FAIR" INDICATES FEW OR NO CLOUDS BELOW 12,000 FEET
WITH NO SIGNIFICANT WEATHER AND/OR OBSTRUCTIONS TO VISIBILITY

NCZ015>017-031-032-045>047-102-103-271600-
NORTH COAST

CITY           SKY/WX    TMP DP  RH WIND       PRES   REMARKS
EDENTON        CLOUDY    82  66  59 CALM      30.04S
ELIZABETH CITY MOSUNNY   82  65  56 W5        30.02S
KITTY HAWK     PTSUNNY   81  64  57 NW5       30.02R
MANTEO         MOSUNNY   80  65  59 W5        30.03S

$$

NCZ045>047-081-094-103-104-271600-
CENTRAL COAST

CITY           SKY/WX    TMP DP  RH WIND       PRES   REMARKS
FRISCO         NOT AVBL

$$

NCZ095-097-098-100-101-271600-
SOUTHERN COAST

CITY           SKY/WX    TMP DP  RH WIND       PRES   REMARKS
BEAUFORT       SUNNY     83  66  56 NW6       30.03S
CEDAR ISLAND   NOT AVBL
JACKSONVILLE   PTSUNNY   82  66  58 NW6       30.03R
PINEY ISLAND   MOSUNNY  N/A N/A N/A NW7       30.03R
WILMINGTON     SUNNY     83  63  50 W7        30.03S


$$

NCZ011>013-027>030-043-044-078>080-089-090>093-098-271600-
COASTAL PLAIN

CITY           SKY/WX    TMP DP  RH WIND       PRES   REMARKS
AHOSKIE          N/A     74  62  65 NW5       30.05R
CLINTON        CLOUDY    81  63  54 N6        30.05S
ELIZABETHTOWN  NOT AVBL
GOLDSBORO      NOT AVBL
GREENVILLE     MOSUNNY   81  63  54 NW5       30.06R
HAVELOCK       MOSUNNY   83  63  50 NW6       30.04
KENANSVILLE    CLOUDY    81  64  57 W6        30.05S
KINSTON        CLOUDY    79  64  61 N6        30.05S
NEW BERN       CLOUDY    82  64  54 W5        30.05R
RICHLANDS      MOSUNNY   83  65  54 VRB3      30.04S
ROCKY MOUNT    PTSUNNY   78  56  46 N12       30.06R
WASHINGTON     CLOUDY   N/A N/A N/A CALM      30.04R
WHITEVILLE     PTSUNNY   81  63  55 W3        30.04S

$$

AMZ130-135-150-152-154-156-158-170-250-252-270-ANZ085-086-088-633-658-670-271600-
MARINE OBSERVATIONS

STATION/POSITION TIME  TEMP    WIND        PRES    WAVE   SWELL
                       AIR SEA DIR/SP/G            HT/PER HT/PER
                 (UTC) (F)     (DEG/KT/KT) (MB)    (FT/S) (FT/S)
CHESAPEAKE LIGHT NOT AVBL
64 E VA BEACH    1450   74 74  200/  4/  4 1017.0    1/ 8   2/ 8
DUCK             1500   80 70  110/  3/  4 1016.2
2 E DUCK         NOT AVBL
OREGON INLET     1500   78 77  220/  3/  5 1016.7
13E OREGON INLT  1448      76                N/A     1/ 7   2/ 7
HATTERAS CG      1500   79 77  320/  4/  5 1016.9
DIAMOND BUOY     1450   78 81  350/  8/ 10 1016.6    2/ 7   2/ 7
CAPE LOOKOUT     1500   81     360/  2/  3 1016.7
BEAUFORT LAB     1500   81 78  360/  4/  5 1016.4
30 SE NEW RVR IN 1508   78 81  340/  4/  6 1017.4
30 SE NEW RVR IN 1513      81                N/A     2/ 8
27 SE WRIGHTSVLE 1508      80  320/  4/  8 1016.6
5 SE WRIGHTSVLE  1508   80 80  320/  2/  6 1016.9
225 S CAPE HAT   1450   77 80  260/ 10/ 12 1017.6    3/ 5   2/ 5
41 SE CHARLESTON 1510   79 81   30/ 10/ 12 1016.6

$$




USA.gov is the U.S. government's official web portal to all federal, state and local government web resources and services.